Weather History for KE38 - February, 2014

Change the Weather History Date:

Tuesday, February 18, 2014

  Actual Average (KFST) Record (KFST)
Temperature  
Mean Temperature 65 °F -  
Max Temperature 81 °F 64 °F - (-1)
Min Temperature 48 °F 40 °F - (-1)
Growing Degree Days 15 (Base 50)    
Moisture  
Dew Point 22 °F    
Average Humidity 23    
Maximum Humidity 37    
Minimum Humidity 9    
Precipitation  
Precipitation 0.00 in - - ()
Sea Level Pressure  
Sea Level Pressure 30.12 in    
Wind  
Wind Speed 10 mph (WSW)    
Max Wind Speed 20 mph    
Max Gust Speed 28 mph    
Visibility 10 miles    
Events      
Averages and records for this station are not official NWS values.
T = Trace of Precipitation, MM = Missing Value Source: NWS Daily Summary

Daily Weather History Graph

Daily Weather History Graph

Search for Another Location

Airport or City:

Trip Planner

Search our weather history database for the weather conditions in past years. The results will help you decide how hot, cold, wet, or windy it might be!

Date:

Astronomy

Feb. 18, 2014 Rise Set
Actual Time 7:32 AM CST 6:45 PM CST
Civil Twilight 7:07 AM CST 7:09 PM CST
Nautical Twilight 6:39 AM CST 7:38 PM CST
Astronomical Twilight 6:11 AM CST 8:05 PM CST
Moon 10:21 PM CST (2/18) 9:23 AM CST (2/18)
Length of Visible Light 12h 02m
Length of Day
11h 13m
Waning Gibbous, 87% of the Moon is Illuminated
Feb 18
Waning Gibbous
Feb 22
Last Quarter
Mar 1
New
Mar 8
First Quarter
Mar 16
Full

Hourly Weather History & Observations

Time (CST) Temp. Dew Point Humidity Pressure Visibility Wind Dir Wind Speed Gust Speed Precip Events Conditions
12:15 AM 59.2 °F 24.3 °F 26% 30.20 in 10.0 mi South 11.5 mph - N/A   Clear
12:35 AM 59.4 °F 24.4 °F 26% 30.20 in 10.0 mi South 12.7 mph - N/A   Clear
12:55 AM 59.2 °F 24.6 °F 27% 30.19 in 10.0 mi South 12.7 mph - N/A   Clear
1:15 AM 59.4 °F 24.8 °F 27% 30.19 in 10.0 mi SSW 10.4 mph - N/A   Clear
1:35 AM 58.8 °F 25.2 °F 28% 30.19 in 10.0 mi SSW 8.1 mph - N/A   Clear
1:55 AM 57.2 °F 24.4 °F 28% 30.19 in 10.0 mi SW 4.6 mph - N/A   Clear
2:15 AM 57.4 °F 24.8 °F 29% 30.18 in 10.0 mi SW 6.9 mph - N/A   Clear
2:35 AM 56.8 °F 24.8 °F 29% 30.18 in 10.0 mi SSW 6.9 mph - N/A   Clear
2:55 AM 56.1 °F 24.6 °F 30% 30.16 in 10.0 mi SSW 6.9 mph - N/A   Clear
3:15 AM 57.2 °F 24.8 °F 29% 30.16 in 10.0 mi SE 6.9 mph - N/A   Clear
3:35 AM 55.8 °F 24.6 °F 30% 30.15 in 10.0 mi Calm Calm - N/A   Clear
3:55 AM 54.5 °F 23.5 °F 30% 30.15 in 10.0 mi WSW 6.9 mph - N/A   Clear
4:15 AM 49.3 °F 22.8 °F 35% 30.14 in 10.0 mi SW 6.9 mph - N/A   Clear
4:35 AM 51.4 °F 23.7 °F 34% 30.14 in 10.0 mi SW 8.1 mph - N/A   Clear
4:55 AM 51.8 °F 24.8 °F 35% 30.14 in 10.0 mi SW 6.9 mph - N/A   Clear
5:15 AM 53.8 °F 25.5 °F 34% 30.14 in 10.0 mi SW 5.8 mph - N/A   Clear
5:35 AM 54.5 °F 26.4 °F 34% 30.14 in 10.0 mi WSW 6.9 mph - N/A   Clear
5:55 AM 55.9 °F 27.1 °F 33% 30.13 in 10.0 mi SW 5.8 mph - N/A   Clear
6:15 AM 54.9 °F 26.6 °F 34% 30.13 in 10.0 mi WSW 9.2 mph - N/A   Clear
6:35 AM 56.7 °F 27.3 °F 33% 30.13 in 10.0 mi West 11.5 mph - N/A   Clear
6:55 AM 56.5 °F 27.5 °F 33% 30.13 in 10.0 mi West 13.8 mph - N/A   Clear
7:15 AM 56.7 °F 28.0 °F 33% 30.13 in 10.0 mi West 15.0 mph - N/A   Clear
7:35 AM 57.6 °F 29.3 °F 34% 30.14 in 10.0 mi WSW 10.4 mph - N/A   Clear
7:55 AM 56.5 °F 29.1 °F 35% 30.15 in 10.0 mi West 11.5 mph - N/A   Clear
8:15 AM 57.0 °F 30.9 °F 37% 30.15 in 10.0 mi Calm Calm - N/A   Clear
8:35 AM 59.4 °F 31.1 °F 34% 30.16 in 10.0 mi SSW 4.6 mph - N/A   Clear
8:55 AM 61.5 °F 32.7 °F 34% 30.16 in 10.0 mi WSW 6.9 mph - N/A   Clear
9:15 AM 63.5 °F 34.7 °F 34% 30.16 in 10.0 mi WSW 11.5 mph - N/A   Clear
10:15 AM 68.4 °F 34.2 °F 28% 30.17 in 10.0 mi SW 13.8 mph - N/A   Clear
10:35 AM 69.4 °F 34.0 °F 27% 30.17 in 10.0 mi SW 16.1 mph - N/A   Clear
10:55 AM 72.0 °F 30.6 °F 22% 30.17 in 10.0 mi WSW 12.7 mph 17.3 mph N/A   Clear
11:35 AM 75.0 °F 27.5 °F 17% 30.16 in 10.0 mi WSW 11.5 mph 17.3 mph N/A   Clear
11:55 AM 76.3 °F 25.3 °F 15% 30.16 in 10.0 mi WSW 11.5 mph 16.1 mph N/A   Clear
12:35 PM 78.4 °F 21.6 °F 12% 30.13 in 10.0 mi West 9.2 mph 21.9 mph N/A   Clear
12:55 PM 80.6 °F 19.4 °F 10% 30.12 in 10.0 mi West 15.0 mph 23.0 mph N/A   Clear
1:15 PM 79.5 °F 17.1 °F 10% 30.12 in 10.0 mi West 11.5 mph 27.6 mph N/A   Clear
1:35 PM 80.8 °F 17.8 °F 10% 30.11 in 10.0 mi NW 19.6 mph 24.2 mph N/A   Clear
1:55 PM 81.1 °F 17.6 °F 9% 30.11 in 10.0 mi WNW 12.7 mph 24.2 mph N/A   Clear
2:15 PM 81.1 °F 18.1 °F 10% 30.09 in 10.0 mi WNW 13.8 mph 23.0 mph N/A   Clear
2:35 PM 81.5 °F 19.0 °F 10% 30.09 in 10.0 mi West 16.1 mph 25.3 mph N/A   Clear
2:55 PM 81.3 °F 19.4 °F 10% 30.08 in 10.0 mi WNW 19.6 mph 24.2 mph N/A   Clear
3:15 PM 80.8 °F 19.2 °F 10% 30.07 in 10.0 mi WSW 10.4 mph 19.6 mph N/A   Clear
3:35 PM 81.3 °F 18.0 °F 9% 30.07 in 10.0 mi West 9.2 mph 20.7 mph N/A   Clear
3:55 PM 81.0 °F 17.8 °F 9% 30.07 in 10.0 mi WNW 10.4 mph 23.0 mph N/A   Clear
4:15 PM 81.0 °F 17.8 °F 9% 30.07 in 10.0 mi West 9.2 mph 23.0 mph N/A   Clear
4:35 PM 79.7 °F 18.5 °F 10% 30.07 in 10.0 mi West 10.4 mph 16.1 mph N/A   Clear
4:55 PM 80.2 °F 18.0 °F 10% 30.06 in 10.0 mi West 15.0 mph 19.6 mph N/A   Clear
5:15 PM 79.3 °F 16.9 °F 10% 30.07 in 10.0 mi West 16.1 mph 20.7 mph N/A   Clear
5:35 PM 78.4 °F 17.2 °F 10% 30.07 in 10.0 mi WNW 16.1 mph 19.6 mph N/A   Clear
5:55 PM 77.4 °F 17.6 °F 11% 30.07 in 10.0 mi West 13.8 mph 17.3 mph N/A   Clear
6:15 PM 75.7 °F 18.1 °F 11% 30.07 in 10.0 mi West 9.2 mph - N/A   Clear
6:35 PM 73.8 °F 18.1 °F 12% 30.08 in 10.0 mi WNW 10.4 mph - N/A   Clear
6:55 PM 69.8 °F 17.6 °F 14% 30.08 in 10.0 mi NW 6.9 mph - N/A   Clear
7:15 PM 64.9 °F 17.2 °F 16% 30.09 in 10.0 mi West 5.8 mph - N/A   Clear
7:35 PM 63.1 °F 17.4 °F 17% 30.09 in 10.0 mi West 5.8 mph - N/A   Clear
7:55 PM 59.4 °F 16.7 °F 19% 30.09 in 10.0 mi WSW 6.9 mph - N/A   Clear
8:15 PM 55.4 °F 16.5 °F 22% 30.11 in 10.0 mi SSW 4.6 mph - N/A   Clear
8:35 PM 55.9 °F 17.6 °F 22% 30.10 in 10.0 mi SW 9.2 mph - N/A   Clear
8:55 PM 54.5 °F 16.9 °F 23% 30.10 in 10.0 mi SW 4.6 mph - N/A   Clear
9:15 PM 53.2 °F 17.2 °F 24% 30.11 in 10.0 mi South 5.8 mph - N/A   Clear
9:35 PM 54.7 °F 16.9 °F 23% 30.11 in 10.0 mi South 5.8 mph - N/A   Clear
9:55 PM 55.4 °F 17.6 °F 23% 30.11 in 10.0 mi South 8.1 mph - N/A   Clear
10:15 PM 54.5 °F 18.0 °F 24% 30.11 in 10.0 mi SW 8.1 mph - N/A   Clear
10:35 PM 54.0 °F 18.0 °F 24% 30.10 in 10.0 mi WSW 8.1 mph - N/A   Clear
10:55 PM 53.2 °F 18.0 °F 25% 30.11 in 10.0 mi SW 8.1 mph - N/A   Clear
11:15 PM 51.6 °F 18.0 °F 27% 30.10 in 10.0 mi WSW 6.9 mph - N/A   Clear
11:35 PM 49.8 °F 17.6 °F 28% 30.10 in 10.0 mi WSW 9.2 mph - N/A   Clear
11:55 PM 48.0 °F 17.6 °F 30% 30.10 in 10.0 mi South 4.6 mph - N/A   Clear